| time (UTC) | temp F | wind direction | speed knots | gust knots | rain 1hr in | rain 24hr in | rain mn in | humidity % | barometer mb |
| 20260509201514 | 64 | 250 | 0.0 | 2.6 | 0.00 | 0.00 | 0.00 | 70 | 1005.0 |
| 20260509200038 | 65 | 243 | 0.9 | 3.5 | 0.00 | 0.00 | 0.00 | 68 | 1004.9 |
| 20260509194555 | 65 | 221 | 0.0 | 3.5 | 0.00 | 0.00 | 0.00 | 69 | 1005.2 |
| 20260509193016 | 65 | 224 | 0.0 | 1.7 | 0.00 | 0.00 | 0.00 | 69 | 1005.2 |
| 20260509191543 | 65 | 207 | 0.0 | 2.6 | 0.00 | 0.00 | 0.00 | 68 | 1005.6 |
| 20260509190059 | 65 | 217 | 0.0 | 3.5 | 0.00 | 0.00 | 0.00 | 70 | 1005.8 |
| 20260509190001 | 65 | 217 | 0.0 | 3.5 | 0.00 | 0.00 | 0.00 | 70 | 1005.9 |
| 20260509184529 | 65 | 238 | 0.0 | 1.7 | 0.00 | 0.00 | 0.00 | 68 | 1005.9 |
| 20260509183035 | 65 | 230 | 0.0 | 3.5 | 0.00 | 0.00 | 0.00 | 69 | 1006.0 |
| 20260509181608 | 66 | 260 | 0.0 | 2.6 | 0.00 | 0.00 | 0.00 | 68 | 1006.1 |
| 20260509180019 | 66 | 224 | 0.0 | 4.3 | 0.00 | 0.00 | 0.00 | 69 | 1006.1 |
| 20260509174531 | 65 | 249 | 0.0 | 4.3 | 0.00 | 0.00 | 0.00 | 68 | 1006.4 |
| 20260509173107 | 65 | 218 | 0.0 | 3.5 | 0.00 | 0.00 | 0.00 | 68 | 1006.7 |
| 20260509171519 | 66 | 232 | 0.9 | 3.5 | 0.00 | 0.00 | 0.00 | 66 | 1007.1 |
| 20260509170049 | 65 | 17 | 0.0 | 3.5 | 0.00 | 0.00 | 0.00 | 67 | 1006.8 |
| 20260509164557 | 65 | 56 | 0.0 | 2.6 | 0.00 | 0.00 | 0.00 | 71 | 1006.9 |
| 20260509164504 | 65 | 220 | 0.0 | 2.6 | 0.00 | 0.00 | 0.00 | 70 | 1007.1 |
| 20260509163024 | 64 | 229 | 0.0 | 3.5 | 0.00 | 0.00 | 0.00 | 72 | 1007.3 |
| 20260509161552 | 63 | 224 | 0.0 | 3.5 | 0.00 | 0.00 | 0.00 | 71 | 1007.7 |
| 20260509160058 | 62 | 236 | 0.9 | 3.5 | 0.00 | 0.00 | 0.00 | 75 | 1007.6 |
| 20260509154525 | 63 | 228 | 0.0 | 2.6 | 0.00 | 0.00 | 0.00 | 74 | 1007.5 |
| 20260509153047 | 60 | 279 | 0.0 | 2.6 | 0.00 | 0.00 | 0.00 | 76 | 1007.8 |
| 20260509151504 | 60 | 255 | 0.0 | 2.6 | 0.00 | 0.00 | 0.00 | 76 | 1008.0 |
| 20260509150023 | 59 | 255 | 0.0 | 1.7 | 0.00 | 0.00 | 0.00 | 78 | 1008.2 |
| 20260509144546 | 59 | 228 | 0.0 | 1.7 | 0.00 | 0.00 | 0.00 | 80 | 1008.1 |
| 20260509143011 | 59 | 232 | 0.0 | 0.9 | 0.00 | 0.00 | 0.00 | 82 | 1008.2 |
| 20260509141540 | 58 | 242 | 0.0 | 0.9 | 0.00 | 0.00 | 0.00 | 82 | 1008.2 |
| 20260509140054 | 58 | 236 | 0.0 | 2.6 | 0.00 | 0.00 | 0.00 | 83 | 1008.4 |
| 20260509134528 | 58 | 214 | 0.0 | 0.9 | 0.00 | 0.00 | 0.00 | 84 | 1008.6 |
| 20260509133033 | 57 | 199 | 0.0 | 1.7 | 0.00 | 0.00 | 0.00 | 85 | 1008.7 |
| 20260509131549 | 56 | 213 | 0.0 | 0.9 | 0.00 | 0.00 | 0.00 | 85 | 1008.8 |
| 20260509130018 | 55 | 318 | 0.0 | 3.5 | 0.00 | 0.00 | 0.00 | 86 | 1008.9 |
| 20260509124522 | 54 | 280 | 0.0 | 1.7 | 0.00 | 0.00 | 0.00 | 87 | 1008.8 |
| 20260509123045 | 53 | 244 | 0.0 | 0.9 | 0.00 | 0.00 | 0.00 | 87 | 1009.0 |
| 20260509121558 | 52 | 153 | 0.0 | 2.6 | 0.00 | 0.00 | 0.00 | 88 | 1009.1 |
| 20260509120024 | 50 | 130 | 0.0 | 0.0 | 0.00 | 0.00 | 0.00 | 91 | 1009.1 |
| 20260509114535 | 48 | 130 | 0.0 | 0.0 | 0.00 | 0.00 | 0.00 | 92 | 1009.0 |
| 20260509113050 | 47 | 130 | 0.0 | 0.0 | 0.00 | 0.00 | 0.00 | 93 | 1008.9 |
| 20260509111512 | 45 | 130 | 0.0 | 0.0 | 0.00 | 0.00 | 0.00 | 93 | 1009.0 |
| 20260509110029 | 44 | 145 | 0.0 | 0.0 | 0.00 | 0.00 | 0.00 | 92 | 1009.0 |
| 20260509104601 | 43 | 145 | 0.0 | 0.0 | 0.00 | 0.00 | 0.00 | 91 | 1009.4 |
| 20260509103007 | 42 | 145 | 0.0 | 0.0 | 0.00 | 0.00 | 0.00 | 91 | 1009.3 |
| 20260509101536 | 42 | 145 | 0.0 | 0.0 | 0.00 | 0.00 | 0.00 | 90 | 1009.1 |
| 20260509100054 | 43 | 145 | 0.0 | 0.0 | 0.00 | 0.00 | 0.00 | 89 | 1009.0 |
| 20260509094513 | 43 | 145 | 0.0 | 0.0 | 0.00 | 0.00 | 0.00 | 88 | 1009.0 |
| 20260509093033 | 43 | 145 | 0.0 | 0.0 | 0.00 | 0.00 | 0.00 | 86 | 1009.1 |
| 20260509091556 | 43 | 145 | 0.0 | 0.0 | 0.00 | 0.00 | 0.00 | 86 | 1009.0 |
| 20260509091503 | 43 | 145 | 0.0 | 0.0 | 0.00 | 0.00 | 0.00 | 86 | 1009.0 |
| 20260509090019 | 42 | 145 | 0.0 | 0.0 | 0.00 | 0.00 | 0.00 | 86 | 1009.0 |
| 20260509084546 | 41 | 145 | 0.0 | 0.0 | 0.00 | 0.00 | 0.00 | 87 | 1009.1 |
| 20260509083006 | 41 | 145 | 0.0 | 0.0 | 0.00 | 0.00 | 0.00 | 86 | 1009.3 |
| 20260509081547 | 41 | 145 | 0.0 | 0.0 | 0.00 | 0.00 | 0.00 | 86 | 1009.4 |
| 20260509080050 | 41 | 145 | 0.0 | 0.0 | 0.00 | 0.00 | 0.00 | 86 | 1009.3 |
| 20260509074516 | 40 | 145 | 0.0 | 0.0 | 0.00 | 0.00 | 0.00 | 86 | 1009.4 |
| 20260509073043 | 40 | 145 | 0.0 | 0.0 | 0.00 | 0.00 | 0.00 | 86 | 1009.6 |
| 20260509071600 | 40 | 145 | 0.0 | 0.0 | 0.00 | 0.00 | 0.00 | 84 | 1009.7 |
| 20260509070017 | 40 | 145 | 0.0 | 0.0 | 0.00 | 0.00 | 0.00 | 83 | 1009.8 |
| 20260509064536 | 40 | 145 | 0.0 | 0.0 | 0.00 | 0.00 | 0.00 | 82 | 1009.9 |
| 20260509063112 | 41 | 214 | 0.0 | 0.0 | 0.00 | 0.00 | 0.00 | 81 | 1010.1 |
| 20260509061518 | 41 | 214 | 0.0 | 0.0 | 0.00 | 0.00 | 0.00 | 80 | 1010.4 |
| 20260509060049 | 41 | 214 | 0.0 | 0.0 | 0.00 | 0.00 | 0.00 | 80 | 1010.6 |
| 20260509054556 | 41 | 214 | 0.0 | 0.0 | 0.00 | 0.00 | 0.00 | 79 | 1010.7 |
| 20260509053021 | 41 | 214 | 0.0 | 0.0 | 0.00 | 0.00 | 0.00 | 79 | 1010.9 |
| 20260509051536 | 42 | 214 | 0.0 | 0.0 | 0.00 | 0.00 | 0.00 | 78 | 1010.9 |
| 20260509050058 | 41 | 214 | 0.0 | 0.0 | 0.00 | 0.00 | 0.00 | 80 | 1011.2 |
| 20260509044511 | 40 | 214 | 0.0 | 0.0 | 0.00 | 0.00 | 0.00 | 79 | 1011.3 |
| 20260509043026 | 40 | 214 | 0.0 | 0.0 | 0.00 | 0.00 | 0.00 | 77 | 1011.2 |
| 20260509041540 | 40 | 214 | 0.0 | 0.0 | 0.00 | 0.00 | 0.00 | 75 | 1011.2 |
| 20260509040104 | 41 | 214 | 0.0 | 0.0 | 0.00 | 0.00 | 0.00 | 76 | 1011.4 |
| 20260509034544 | 41 | 214 | 0.0 | 0.0 | 0.00 | 0.00 | 0.00 | 78 | 1011.5 |
| 20260509033006 | 41 | 214 | 0.0 | 0.0 | 0.00 | 0.00 | 0.00 | 81 | 1011.7 |
| 20260509031536 | 41 | 214 | 0.0 | 0.0 | 0.00 | 0.00 | 0.00 | 82 | 1011.7 |
| 20260509030057 | 41 | 214 | 0.0 | 0.0 | 0.00 | 0.00 | 0.00 | 81 | 1012.0 |
| 20260509024520 | 41 | 214 | 0.0 | 0.0 | 0.00 | 0.00 | 0.00 | 79 | 1011.9 |
| 20260509023044 | 42 | 214 | 0.0 | 0.0 | 0.00 | 0.00 | 0.00 | 78 | 1012.1 |
| 20260509021516 | 42 | 214 | 0.0 | 0.0 | 0.00 | 0.00 | 0.00 | 79 | 1011.8 |
| 20260509020047 | 43 | 214 | 0.0 | 0.0 | 0.00 | 0.00 | 0.00 | 79 | 1011.8 |
| 20260509014517 | 44 | 214 | 0.0 | 0.0 | 0.00 | 0.00 | 0.00 | 69 | 1011.9 |
| 20260509013030 | 45 | 214 | 0.0 | 0.0 | 0.00 | 0.00 | 0.00 | 69 | 1011.9 |
| 20260509011554 | 46 | 214 | 0.0 | 0.0 | 0.00 | 0.00 | 0.00 | 70 | 1011.9 |
| 20260509010016 | 46 | 214 | 0.0 | 0.0 | 0.00 | 0.00 | 0.00 | 67 | 1011.7 |
| 20260509004536 | 48 | 214 | 0.0 | 0.0 | 0.00 | 0.00 | 0.00 | 64 | 1011.7 |
| 20260509003059 | 50 | 214 | 0.0 | 0.0 | 0.00 | 0.00 | 0.00 | 64 | 1011.6 |
| 20260509001525 | 52 | 214 | 0.0 | 0.0 | 0.00 | 0.00 | 0.00 | 60 | 1011.2 |
| 20260509000055 | 54 | 214 | 0.0 | 0.0 | 0.00 | 0.00 | 0.00 | 60 | 1011.2 |
| 20260508234513 | 56 | 214 | 0.0 | 0.9 | 0.00 | 0.00 | 0.00 | 57 | 1011.3 |
| 20260508233036 | 59 | 97 | 0.0 | 1.7 | 0.00 | 0.00 | 0.00 | 48 | 1011.2 |
| 20260508231557 | 60 | 230 | 0.0 | 0.9 | 0.00 | 0.00 | 0.00 | 50 | 1011.1 |
| 20260508230021 | 60 | 222 | 0.0 | 2.6 | 0.00 | 0.00 | 0.00 | 49 | 1011.2 |
| 20260508224535 | 60 | 214 | 0.0 | 1.7 | 0.00 | 0.00 | 0.00 | 54 | 1011.2 |
| 20260508223056 | 59 | 261 | 0.0 | 0.9 | 0.00 | 0.00 | 0.00 | 52 | 1011.2 |
| 20260508221517 | 58 | 218 | 0.0 | 0.9 | 0.00 | 0.00 | 0.00 | 52 | 1011.3 |
| 20260508220043 | 60 | 233 | 0.0 | 0.0 | 0.00 | 0.00 | 0.00 | 52 | 1011.4 |
| 20260508214559 | 59 | 48 | 0.0 | 1.7 | 0.00 | 0.00 | 0.00 | 52 | 1011.5 |
| 20260508214514 | 59 | 119 | 0.0 | 1.7 | 0.00 | 0.00 | 0.00 | 54 | 1011.5 |
| 20260508213032 | 58 | 290 | 0.0 | 2.6 | 0.00 | 0.00 | 0.00 | 54 | 1011.6 |
| 20260508211557 | 58 | 307 | 0.9 | 2.6 | 0.00 | 0.00 | 0.00 | 54 | 1011.4 |
| 20260508210011 | 58 | 256 | 0.0 | 0.9 | 0.00 | 0.00 | 0.00 | 55 | 1011.6 |
| 20260508204529 | 56 | 281 | 0.0 | 0.9 | 0.00 | 0.00 | 0.00 | 58 | 1011.6 |
| 20260508203059 | 55 | 261 | 0.0 | 1.7 | 0.00 | 0.00 | 0.00 | 61 | 1011.7 |